Time,TemperatureF,DewpointF,PressureIn,WindDirection,WindDirectionDegrees,WindSpeedMPH,WindSpeedGustMPH,Humidity,HourlyPrecipIn,Conditions,Clouds,dailyrainin,SolarRadiationWatts/m^2,SoftwareType,DateUTC
2013-03-13 00:43:00,52.0,22.0,-100.00,NNE,14,2.0,4.0,30,-99.99,,,0.00,0.000000,,2013-03-13 07:43:00,
2013-03-13 00:52:00,52.0,22.0,-100.00,NNE,14,2.0,4.0,30,-99.99,,,0.00,0.000000,,2013-03-13 07:52:00,
2013-03-13 01:03:00,52.0,22.0,-100.00,NNE,14,2.0,4.0,30,-99.99,,,0.00,0.000000,,2013-03-13 08:03:00,
2013-03-13 01:12:00,52.0,22.0,-100.00,NNE,14,2.0,4.0,30,-99.99,,,0.00,0.000000,,2013-03-13 08:12:00,
2013-03-13 01:43:00,58.0,19.0,-100.00,NNE,16,1.0,8.0,22,-99.99,,,0.00,0.000000,,2013-03-13 08:43:00,
2013-03-13 01:53:00,58.0,19.0,-100.00,NNE,16,1.0,8.0,22,-99.99,,,0.00,0.000000,,2013-03-13 08:53:00,
2013-03-13 02:02:00,58.0,19.0,-100.00,NNE,16,1.0,8.0,22,-99.99,,,0.00,0.000000,,2013-03-13 09:02:00,
2013-03-13 02:12:00,58.0,19.0,-100.00,NNE,16,1.0,8.0,22,-99.99,,,0.00,0.000000,,2013-03-13 09:12:00,
2013-03-13 02:32:00,57.0,23.0,-100.00,NNE,32,1.0,6.0,27,0.00,,,0.00,0.000000,,2013-03-13 09:32:00,
2013-03-13 02:42:00,57.0,23.0,-100.00,NNE,32,1.0,6.0,27,0.00,,,0.00,0.000000,,2013-03-13 09:42:00,
2013-03-13 02:52:00,57.0,23.0,-100.00,NNE,32,1.0,6.0,27,0.00,,,0.00,0.000000,,2013-03-13 09:52:00,
2013-03-13 03:01:00,57.0,23.0,-100.00,NNE,32,1.0,6.0,27,0.00,,,0.00,0.000000,,2013-03-13 10:01:00,
2013-03-13 03:32:00,55.0,21.0,-100.00,ENE,58,3.0,9.0,26,-99.99,,,0.00,0.000000,,2013-03-13 10:32:00,
2013-03-13 04:32:00,55.0,22.0,-100.00,ENE,67,1.0,8.0,27,-99.99,,,0.00,0.000000,,2013-03-13 11:32:00,
2013-03-13 05:32:00,56.0,23.0,-100.00,NNE,12,0.0,6.0,27,-99.99,,,0.00,0.000000,,2013-03-13 12:32:00,
2013-03-13 06:33:00,54.0,22.0,-100.00,SSW,209,0.0,6.0,28,-99.99,,,0.00,0.000000,,2013-03-13 13:33:00,
2013-03-13 07:34:00,55.0,23.0,-100.00,WNW,294,0.0,4.0,28,-99.99,,,0.00,0.000000,,2013-03-13 14:34:00,
2013-03-13 08:43:00,62.0,22.0,-100.00,NE,41,9.0,9.0,21,-99.99,,,0.00,140.000000,,2013-03-13 15:43:00,
2013-03-13 08:52:00,62.0,22.0,-100.00,NE,41,9.0,9.0,21,-99.99,,,0.00,140.000000,,2013-03-13 15:52:00,
2013-03-13 09:02:00,62.0,22.0,-100.00,NE,41,9.0,9.0,21,-99.99,,,0.00,140.000000,,2013-03-13 16:02:00,
2013-03-13 09:12:00,62.0,22.0,-100.00,NE,41,9.0,9.0,21,-99.99,,,0.00,140.000000,,2013-03-13 16:12:00,
2013-03-13 09:32:00,71.0,25.0,-100.00,NE,46,6.0,17.0,18,0.00,,,0.00,409.000000,,2013-03-13 16:32:00,
2013-03-13 09:42:00,71.0,25.0,-100.00,NE,46,6.0,17.0,18,0.00,,,0.00,409.000000,,2013-03-13 16:42:00,
2013-03-13 09:52:00,71.0,25.0,-100.00,NE,46,6.0,17.0,18,0.00,,,0.00,409.000000,,2013-03-13 16:52:00,
2013-03-13 10:02:00,71.0,25.0,-100.00,NE,46,6.0,17.0,18,0.00,,,0.00,409.000000,,2013-03-13 17:02:00,
2013-03-13 10:11:00,71.0,25.0,-100.00,NE,46,6.0,17.0,18,0.00,,,0.00,409.000000,,2013-03-13 17:11:00,
2013-03-13 10:33:00,76.0,25.0,-100.00,NE,45,10.0,17.0,15,0.00,,,0.00,666.000000,,2013-03-13 17:33:00,
2013-03-13 10:42:00,76.0,25.0,-100.00,NE,45,10.0,17.0,15,0.00,,,0.00,666.000000,,2013-03-13 17:42:00,
2013-03-13 10:53:00,76.0,25.0,-100.00,NE,45,10.0,17.0,15,0.00,,,0.00,666.000000,,2013-03-13 17:53:00,
2013-03-13 11:02:00,76.0,25.0,-100.00,NE,45,10.0,17.0,15,0.00,,,0.00,666.000000,,2013-03-13 18:02:00,
2013-03-13 11:12:00,76.0,25.0,-100.00,NE,45,10.0,17.0,15,0.00,,,0.00,666.000000,,2013-03-13 18:12:00,
2013-03-13 11:42:00,78.0,23.0,-100.00,NE,40,11.0,22.0,13,0.00,,,-99.99,877.000000,,2013-03-13 18:42:00,
2013-03-13 11:52:00,78.0,23.0,-100.00,NE,40,11.0,22.0,13,0.00,,,-99.99,877.000000,,2013-03-13 18:52:00,
2013-03-13 12:02:00,78.0,23.0,-100.00,NE,40,11.0,22.0,13,0.00,,,-99.99,877.000000,,2013-03-13 19:02:00,
2013-03-13 12:12:00,78.0,23.0,-100.00,NE,40,11.0,22.0,13,0.00,,,-99.99,877.000000,,2013-03-13 19:12:00,
2013-03-13 12:43:00,81.0,24.0,-100.00,NNE,21,8.0,19.0,12,0.00,,,0.00,1022.000000,,2013-03-13 19:43:00,
2013-03-13 12:53:00,81.0,24.0,-100.00,NNE,21,8.0,19.0,12,0.00,,,0.00,1022.000000,,2013-03-13 19:53:00,
2013-03-13 13:02:00,81.0,24.0,-100.00,NNE,21,8.0,19.0,12,0.00,,,0.00,1022.000000,,2013-03-13 20:02:00,
2013-03-13 13:11:00,81.0,24.0,-100.00,NNE,21,8.0,19.0,12,0.00,,,0.00,1022.000000,,2013-03-13 20:11:00,
2013-03-13 13:32:00,83.0,21.0,-100.00,East,101,6.0,17.0,10,0.00,,,0.00,1088.000000,,2013-03-13 20:32:00,
2013-03-13 14:02:00,83.0,21.0,-100.00,East,101,6.0,17.0,10,0.00,,,0.00,1088.000000,,2013-03-13 21:02:00,
2013-03-13 14:11:00,83.0,21.0,-100.00,East,101,6.0,17.0,10,0.00,,,0.00,1088.000000,,2013-03-13 21:11:00,
2013-03-13 14:34:00,84.0,19.0,-100.00,NNE,19,8.0,14.0,9,0.00,,,0.00,1066.000000,,2013-03-13 21:34:00,
2013-03-13 15:42:00,85.0,20.0,-100.00,NNE,32,7.0,15.0,9,-99.99,,,0.00,979.000000,,2013-03-13 22:42:00,
2013-03-13 15:52:00,85.0,20.0,-100.00,NNE,32,7.0,15.0,9,-99.99,,,0.00,979.000000,,2013-03-13 22:52:00,
2013-03-13 16:43:00,84.0,22.0,-100.00,North,4,5.0,13.0,10,-99.99,,,0.00,804.000000,,2013-03-13 23:43:00,
2013-03-13 16:52:00,84.0,22.0,-100.00,North,4,5.0,13.0,10,-99.99,,,0.00,804.000000,,2013-03-13 23:52:00,
2013-03-13 17:33:00,81.0,36.0,-100.00,NW,317,5.0,13.0,20,-99.99,,,0.00,572.000000,,2013-03-14 00:33:00,
2013-03-13 17:42:00,81.0,36.0,-100.00,NW,317,5.0,13.0,20,-99.99,,,0.00,572.000000,,2013-03-14 00:42:00,
2013-03-13 17:52:00,81.0,36.0,-100.00,NW,317,5.0,13.0,20,-99.99,,,0.00,572.000000,,2013-03-14 00:52:00,
2013-03-13 18:32:00,77.0,37.0,-100.00,WNW,297,5.0,12.0,24,-99.99,,,0.00,35.000000,,2013-03-14 01:32:00,
2013-03-13 18:42:00,77.0,37.0,-100.00,WNW,297,5.0,12.0,24,-99.99,,,0.00,35.000000,,2013-03-14 01:42:00,
2013-03-13 18:52:00,77.0,37.0,-100.00,WNW,297,5.0,12.0,24,-99.99,,,0.00,35.000000,,2013-03-14 01:52:00,
2013-03-13 19:02:00,77.0,37.0,-100.00,WNW,297,5.0,12.0,24,-99.99,,,0.00,35.000000,,2013-03-14 02:02:00,
2013-03-13 20:01:00,70.0,39.0,-100.00,WNW,286,4.0,9.0,32,-99.99,,,0.00,13.000000,,2013-03-14 03:01:00,
2013-03-13 20:12:00,70.0,39.0,-100.00,WNW,286,4.0,9.0,32,-99.99,,,0.00,13.000000,,2013-03-14 03:12:00,
2013-03-13 20:33:00,61.0,32.0,-100.00,NNE,33,1.0,6.0,33,0.00,,,0.00,0.000000,,2013-03-14 03:33:00,
2013-03-13 20:42:00,61.0,32.0,-100.00,NNE,33,1.0,6.0,33,0.00,,,0.00,0.000000,,2013-03-14 03:42:00,
2013-03-13 20:52:00,61.0,32.0,-100.00,NNE,33,1.0,6.0,33,0.00,,,0.00,0.000000,,2013-03-14 03:52:00,
2013-03-13 21:11:00,61.0,32.0,-100.00,NNE,33,1.0,6.0,33,0.00,,,0.00,0.000000,,2013-03-14 04:11:00,
2013-03-13 21:32:00,55.0,29.0,-100.00,NW,323,0.0,5.0,36,0.00,,,0.00,0.000000,,2013-03-14 04:32:00,
2013-03-13 21:42:00,55.0,29.0,-100.00,NW,323,0.0,5.0,36,0.00,,,0.00,0.000000,,2013-03-14 04:42:00,
2013-03-13 21:52:00,55.0,29.0,-100.00,NW,323,0.0,5.0,36,0.00,,,0.00,0.000000,,2013-03-14 04:52:00,
2013-03-13 22:02:00,55.0,29.0,-100.00,NW,323,0.0,5.0,36,0.00,,,0.00,0.000000,,2013-03-14 05:02:00,
2013-03-13 22:11:00,55.0,29.0,-100.00,NW,323,0.0,5.0,36,0.00,,,0.00,0.000000,,2013-03-14 05:11:00,
2013-03-13 22:33:00,54.0,30.0,-100.00,ESE,115,0.0,4.0,39,-99.99,,,0.00,0.000000,,2013-03-14 05:33:00,
2013-03-13 22:42:00,54.0,30.0,-100.00,ESE,115,0.0,4.0,39,-99.99,,,0.00,0.000000,,2013-03-14 05:42:00,
2013-03-13 22:52:00,54.0,30.0,-100.00,ESE,115,0.0,4.0,39,-99.99,,,0.00,0.000000,,2013-03-14 05:52:00,
2013-03-13 23:02:00,54.0,30.0,-100.00,ESE,115,0.0,4.0,39,-99.99,,,0.00,0.000000,,2013-03-14 06:02:00,
2013-03-13 23:12:00,54.0,30.0,-100.00,ESE,115,0.0,4.0,39,-99.99,,,0.00,0.000000,,2013-03-14 06:12:00,
2013-03-13 23:33:00,51.0,26.0,-100.00,North,359,0.0,7.0,38,-99.99,,,0.00,0.000000,,2013-03-14 06:33:00,